Tracking 19628 objects as of 27-May-2019
HD Live streaming from Space Station
objects crossing your sky now
Watch Starlink satellites crossing your sky!

SAUDICOMSAT 2

Track SAUDICOMSAT 2 now!
10-day predictions
SAUDICOMSAT 2 is classified as:


NORAD ID: 28370
Int'l Code: 2004-025E
Perigee: 699.7 km
Apogee: 782.7 km
Inclination: 98.4 °
Period: 99.5 minutes
Semi major axis: 7112 km
RCS: 0.0638 m2 (small)
Launch date: June 29, 2004
Source: Saudi Arabia (SAUD)
Launch site: TYURATAM MISSILE AND SPACE COMPLEX (TTMTR)
aabbcc
Your satellite tracking list
Your tracking list is empty




NASA's NSSDC Master Catalog

Two Line Element Set (TLE):
1 28370U 04025E   19146.80965873 -.00000001 +00000-0 +12063-4 0  9996
2 28370 098.3857 091.9552 0058367 152.6408 207.7879 14.47429726786948
Source of the keplerian elements: AFSPC